TimeCDT,TemperatureF,Dew PointF,Humidity,Sea Level PressureIn,VisibilityMPH,Wind Direction,Wind SpeedMPH,Gust SpeedMPH,PrecipitationIn,Events,Conditions,WindDirDegrees,DateUTC
12:53 AM,37.0,28.0,70,30.16,10.0,South,6.9,-,N/A,,Clear,190,2012-10-08 05:53:00
1:53 AM,37.0,28.0,70,30.17,10.0,SSW,6.9,-,N/A,,Clear,200,2012-10-08 06:53:00
2:53 AM,37.0,28.0,70,30.16,10.0,South,8.1,-,N/A,,Clear,190,2012-10-08 07:53:00
3:53 AM,34.0,28.0,79,30.14,10.0,South,5.8,-,N/A,,Clear,180,2012-10-08 08:53:00
4:53 AM,34.0,28.0,79,30.14,10.0,South,6.9,-,N/A,,Clear,190,2012-10-08 09:53:00
5:53 AM,34.0,28.0,79,30.14,10.0,South,6.9,-,N/A,,Clear,180,2012-10-08 10:53:00
6:53 AM,35.1,28.9,78,30.14,10.0,South,9.2,-,N/A,,Clear,180,2012-10-08 11:53:00
7:53 AM,36.0,30.0,79,30.15,10.0,South,6.9,-,N/A,,Clear,180,2012-10-08 12:53:00
8:53 AM,41.0,32.0,70,30.15,10.0,South,9.2,-,N/A,,Clear,190,2012-10-08 13:53:00
9:53 AM,46.9,33.1,59,30.14,10.0,SSW,12.7,-,N/A,,Clear,200,2012-10-08 14:53:00
10:53 AM,53.1,32.0,45,30.12,10.0,South,18.4,-,N/A,,Clear,190,2012-10-08 15:53:00
11:53 AM,55.9,30.9,39,30.11,10.0,SSW,19.6,26.5,N/A,,Clear,200,2012-10-08 16:53:00
12:53 PM,57.9,32.0,37,30.09,10.0,SSW,18.4,27.6,N/A,,Clear,200,2012-10-08 17:53:00
1:53 PM,61.0,33.1,35,30.06,10.0,SSW,16.1,26.5,N/A,,Clear,200,2012-10-08 18:53:00
2:53 PM,61.0,33.1,35,30.02,10.0,South,18.4,28.8,N/A,,Clear,190,2012-10-08 19:53:00
3:53 PM,61.0,35.1,38,30.00,10.0,South,12.7,23.0,N/A,,Clear,190,2012-10-08 20:53:00
4:53 PM,61.0,34.0,36,29.99,10.0,South,20.7,27.6,N/A,,Clear,190,2012-10-08 21:53:00
5:53 PM,59.0,34.0,39,29.98,10.0,South,15.0,21.9,N/A,,Clear,180,2012-10-08 22:53:00
6:53 PM,55.9,35.1,45,29.98,10.0,South,9.2,-,N/A,,Clear,170,2012-10-08 23:53:00
7:53 PM,53.1,35.1,50,29.99,10.0,South,11.5,-,N/A,,Clear,170,2012-10-09 00:53:00
8:53 PM,52.0,35.1,53,29.99,10.0,South,11.5,-,N/A,,Clear,170,2012-10-09 01:53:00
9:53 PM,51.1,35.1,54,30.00,10.0,South,11.5,-,N/A,,Clear,180,2012-10-09 02:53:00
10:53 PM,48.9,37.0,64,29.99,10.0,South,12.7,-,N/A,,Clear,180,2012-10-09 03:53:00
11:53 PM,48.0,37.0,66,29.98,10.0,South,12.7,-,N/A,,Clear,180,2012-10-09 04:53:00